[[{"header":{"parameterUnit":"m.s-1","parameterCategory":1,"la1":30.2991,"la2":30.254,"lo1":-89.0895,"lo2":-89.0444,"dy":0.0017,"dx":0.0017,"nx":28,"ny":28,"refTime":"2023-09-24T21:00:00:Z","depth":0,"parameterNumber":2,"parameterNumberName":"U-component_of_WINDS"},"data":[0,0,0,0,0,0,0,0,0,0,0,0,0,0,0,0,0,0,0,0,0,0,0,0,0,0,0,0,0,0,0,0,0,0,0,0,0,0,0,0,0,0,0,0,0,0,0,0,0,0,0,0,0,0,0,0,0,0,-1.8881,-1.8881,0,-1.89,-1.89,-1.8901,-1.8833,-1.8831,-1.8829,-1.8827,-1.8845,-1.8847,-1.885,0,0,0,0,0,0,0,0,0,0,0,0,0,-1.8783,-1.8785,-1.8881,-1.8881,-1.8881,-1.89,-1.8901,-1.8901,-1.8833,-1.8831,-1.8828,-1.8826,-1.8844,-1.8847,-1.885,0,0,0,0,0,0,0,0,0,0,0,0,0,-1.8816,-1.8786,-1.8881,-1.885,-1.8847,-1.89,-1.8901,-1.8901,-1.8834,-1.8831,-1.8828,-1.8825,-1.8843,-1.8847,-1.885,-1.8933,0,0,-1.8861,-1.8863,0,0,0,0,0,0,0,0,-1.8815,-1.882,-1.8854,-1.8852,-1.8849,-1.8861,-1.8873,-1.8912,-1.8835,-1.8839,-1.8827,-1.8823,-1.8853,-1.8855,-1.8866,-1.8934,-1.8935,-1.8861,-1.8864,-1.8865,-1.8866,0,0,0,0,0,0,0,-1.8812,-1.8819,-1.8888,-1.8855,-1.8852,-1.8834,-1.8836,-1.888,-1.8863,-1.8838,-1.8833,-1.8837,-1.8851,-1.8862,-1.8865,-1.8935,-1.8861,-1.8864,-1.8867,-1.8868,-1.9072,-1.9075,0,0,0,0,0,0,-1.8814,-1.8817,-1.8888,-1.8889,-1.8824,-1.8839,-1.884,-1.886,-1.8862,-1.8859,-1.8839,-1.8834,-1.8858,-1.8861,-1.8866,-1.8962,-1.8865,-1.8868,-1.887,-1.9068,-1.9072,-1.9076,0,0,0,0,0,0,-1.8812,-1.8821,-1.8887,-1.8852,-1.8859,-1.8844,-1.8867,-1.8862,-1.8874,-1.8863,-1.8859,-1.8854,-1.8855,-1.8861,-1.8917,-1.8962,-1.887,-1.8873,-1.9064,-1.907,-1.9074,-1.9156,0,0,0,0,0,0,-1.881,-1.8821,-1.8853,-1.8853,-1.8861,-1.8938,-1.887,-1.8865,-1.888,-1.8873,-1.8876,-1.8873,-1.8853,-1.8912,-1.892,-1.8965,-1.8876,-1.906,-1.9067,-1.9072,-1.9149,-1.9163,-1.9175,0,0,0,0,0,-1.8807,-1.8874,-1.8855,-1.8863,-1.89,-1.8941,-1.8945,-1.8922,-1.8884,-1.8915,-1.8909,-1.8873,-1.8956,-1.8918,-1.8927,-1.8973,-1.9057,-1.9065,-1.9072,-1.9143,-1.916,-1.9174,0,0,0,0,0,0,-1.8878,-1.8874,-1.8852,-1.8922,-1.8932,-1.8929,-1.8968,-1.8941,-1.8961,-1.8953,-1.8923,-1.8924,-1.8985,-1.8985,-1.8943,-1.9053,-1.9,-1.901,-1.9051,-1.9067,-1.908,-1.9077,-1.8879,0,0,0,0,0,-1.8903,-1.8937,-1.8931,-1.8993,-1.9,-1.8983,-1.9,-1.8981,-1.8991,-1.8994,-1.8991,-1.9001,-1.9029,-1.9048,-1.9074,-1.9149,-1.9148,-1.9186,-1.9198,-1.9209,-1.9217,-1.9256,-1.9272,-1.91,-1.91,-1.91,0,0,-1.8952,-1.8954,-1.8977,-1.9007,-1.9013,-1.9049,-1.8987,-1.9027,-1.9053,-1.9,-1.9053,-1.9051,-1.906,-1.9126,-1.9155,-1.9128,-1.9265,-1.9219,-1.9227,-1.9229,-1.9265,-1.9282,-1.9296,-1.9105,-1.9104,-1.9103,0,0,-1.906,-1.9066,-1.9118,-1.9126,-1.9136,-1.9125,-1.9138,-1.914,-1.9137,-1.919,-1.9151,-1.9181,-1.923,-1.9238,-1.9248,-1.9361,-1.9329,-1.9371,-1.9437,-1.9476,-1.9489,-1.9501,-1.954,-1.9555,-1.9379,-1.9379,-1.9379,0,-1.912,-1.9173,-1.9148,-1.9191,-1.9205,-1.9161,-1.9213,-1.9221,-1.9239,-1.925,-1.922,-1.928,-1.9284,-1.935,-1.9378,-1.9389,-1.9401,-1.9369,-1.9489,-1.9501,-1.9512,-1.9548,-1.9563,-1.9384,-1.9384,-1.9383,-1.9383,0,-1.9245,-1.9282,-1.9323,-1.9343,-1.9362,-1.9409,-1.9391,-1.9413,-1.9393,-1.9385,-1.9439,-1.9442,-1.9467,-1.9482,-1.9462,-1.9546,-1.9529,-1.9495,-1.944,-1.9533,-1.9567,-1.9581,-1.9391,-1.9389,-1.9388,-1.9387,0,0,-1.9397,-1.9404,-1.9419,-1.9427,-1.9436,-1.9463,-1.9509,-1.9534,-1.9553,-1.9568,-1.9604,-1.9648,-1.9617,-1.9629,-1.961,-1.9644,-1.9732,-1.9606,-1.9605,-1.9628,-1.9823,-1.9847,-1.9864,-1.9712,-1.9715,-1.9717,-1.9822,0,-1.9502,-1.958,-1.956,-1.9637,-1.9671,-1.963,-1.967,-1.9679,-1.9674,-1.9701,-1.9694,-1.9725,-1.9682,-1.9689,-1.9721,-1.9715,-1.9771,-1.9707,-1.9744,-1.9746,-1.9741,-1.9882,-1.9907,-2.0006,-1.9835,-1.9838,-1.9839,0,-1.9634,-1.9655,-1.9736,-1.974,-1.9753,-1.9789,-1.981,-1.9838,-1.9848,-1.9841,-1.9856,-1.983,-1.9874,-1.9821,-1.9881,-1.9838,-1.9853,-1.9852,-1.9855,-1.9856,-1.9797,-1.9885,-2.0037,-2.0051,-1.986,-1.9858,-1.9857,0,-1.9735,-1.9783,-1.9837,-1.9846,-1.9852,-1.9878,-1.9882,-1.9889,-1.9906,-1.9925,-1.9935,-1.9959,-1.9972,-1.9991,-1.9972,-1.9936,-2.0035,-1.998,-2.0029,-2.0029,-2.0049,-2.0048,-2.0205,-2.0063,-2.0063,-2.0062,-2.0062,0,-1.9853,-1.9903,-1.9882,-1.9916,-1.9971,-1.9948,-2.0004,-2.0003,-2.001,-2.0042,-2.0009,-2.0039,-2.0014,-2.0042,-2.0029,-2.0079,-2.0086,-2.0081,-2.0076,-2.0083,-2.0083,-2.009,-2.0081,-2.0066,-2.0065,-2.0065,-2.0064,0,-1.9973,-1.9961,-2.0017,-2.002,-2.0022,-2.0062,-2.0063,-2.0094,-2.0087,-2.0128,-2.0136,-2.0124,-2.0156,-2.014,-2.0173,-2.0164,-2.0229,-2.0216,-2.0226,-2.0222,-2.0271,-2.0265,-2.0435,-2.0455,-2.0303,-2.0304,-2.0306,0,-2.0047,-2.0086,-2.0093,-2.0112,-2.0118,-2.015,-2.0167,-2.0147,-2.0166,-2.0181,-2.021,-2.0239,-2.026,-2.0313,-2.0307,-2.0332,-2.0318,-2.0376,-2.0321,-2.0326,-2.0316,-2.0313,-2.0316,-2.0386,-2.0387,-2.0389,-2.039,0,-2.0181,-2.0174,-2.02,-2.0225,-2.0247,-2.0265,-2.0281,-2.0298,-2.0278,-2.0301,-2.0334,-2.0351,-2.0385,-2.0414,-2.0436,-2.0439,-2.0411,-2.0408,-2.042,-2.0426,-2.0429,-2.0426,-2.0253,-2.0403,-2.0402,-2.0401,-2.04,-2.04,-2.0279,-2.0311,-2.0321,-2.0352,-2.0362,-2.0377,-2.0406,-2.0403,-2.043,-2.0457,-2.0443,-2.0481,-2.049,-2.0517,-2.0524,-2.0553,-2.0529,-2.0548,-2.0552,-2.0556,-2.0562,-2.0427,-2.0557,-2.0556,-2.0556,-2.0556,-2.0555,0,-2.0409,-2.0414,-2.0443,-2.0466,-2.049,-2.0464,-2.048,-2.0502,-2.0535,-2.0547,-2.057,-2.0608,-2.0636,-2.0633,-2.0659,-2.0682,-2.067,-2.0689,-2.0686,-2.0687,-2.0582,-2.0568,-2.0699,-2.0699,-2.0699,-2.0699,-2.0699,-2.0698,-2.0479,-2.0531,-2.0526,-2.0583,-2.0587,-2.0625,-2.0636,-2.065,-2.0659,-2.0703,-2.0726,-2.0725,-2.0731,-2.0757,-2.0781,-2.078,-2.079,-2.0814,-2.0807,-2.0709,-2.0694,-2.0681,-2.0667,-2.0817,-2.0817,-2.0909,-2.091,-2.0911]},{"header":{"parameterUnit":"m.s-1","parameterCategory":1,"la1":30.2991,"la2":30.254,"lo1":-89.0895,"lo2":-89.0444,"dy":0.0017,"dx":0.0017,"nx":28,"ny":28,"refTime":"2023-09-24T21:00:00:Z","depth":0,"parameterNumber":3,"parameterNumberName":"V-component_of_WINDS"},"data":[0,0,0,0,0,0,0,0,0,0,0,0,0,0,0,0,0,0,0,0,0,0,0,0,0,0,0,0,0,0,0,0,0,0,0,0,0,0,0,0,0,0,0,0,0,0,0,0,0,0,0,0,0,0,0,0,0,0,-1.8127,-1.8128,0,-1.822,-1.8221,-1.8222,-1.8272,-1.8272,-1.8272,-1.8272,-1.8369,-1.8372,-1.8374,0,0,0,0,0,0,0,0,0,0,0,0,0,-1.7994,-1.7996,-1.8127,-1.8128,-1.8129,-1.822,-1.8221,-1.8222,-1.8272,-1.8272,-1.8272,-1.8272,-1.8368,-1.8371,-1.8374,0,0,0,0,0,0,0,0,0,0,0,0,0,-1.8066,-1.7997,-1.8127,-1.8165,-1.8169,-1.822,-1.8221,-1.8223,-1.8272,-1.8272,-1.8272,-1.8272,-1.8367,-1.8371,-1.8375,-1.8395,0,0,-1.8386,-1.8388,0,0,0,0,0,0,0,0,-1.8061,-1.807,-1.8158,-1.8162,-1.8167,-1.8234,-1.821,-1.8281,-1.8272,-1.8233,-1.8272,-1.8272,-1.8324,-1.8332,-1.8349,-1.84,-1.8404,-1.8387,-1.8389,-1.839,-1.8391,0,0,0,0,0,0,0,-1.8056,-1.8067,-1.8164,-1.8159,-1.8165,-1.8178,-1.8188,-1.8223,-1.8277,-1.8236,-1.824,-1.825,-1.8327,-1.8345,-1.8351,-1.8405,-1.8386,-1.839,-1.8392,-1.8394,-1.8477,-1.8477,0,0,0,0,0,0,-1.8045,-1.8062,-1.8161,-1.8167,-1.8113,-1.818,-1.8192,-1.8213,-1.8276,-1.8286,-1.825,-1.8252,-1.8339,-1.8347,-1.8355,-1.8383,-1.839,-1.8394,-1.8396,-1.8477,-1.8477,-1.8477,0,0,0,0,0,0,-1.8042,-1.8053,-1.8157,-1.8116,-1.813,-1.8182,-1.8205,-1.8214,-1.8233,-1.8287,-1.8297,-1.8259,-1.8339,-1.835,-1.8385,-1.8387,-1.8396,-1.8399,-1.8477,-1.8477,-1.8477,-1.8438,0,0,0,0,0,0,-1.8038,-1.8052,-1.806,-1.8115,-1.8132,-1.8185,-1.8206,-1.8216,-1.8239,-1.8243,-1.8298,-1.8307,-1.834,-1.8379,-1.8388,-1.8392,-1.8402,-1.8477,-1.8477,-1.8477,-1.844,-1.8437,-1.8435,0,0,0,0,0,-1.8033,-1.8046,-1.806,-1.8072,-1.8143,-1.8185,-1.8194,-1.8231,-1.8239,-1.8247,-1.8282,-1.8305,-1.8385,-1.8382,-1.8393,-1.8398,-1.8477,-1.8477,-1.8477,-1.8441,-1.8437,-1.8435,0,0,0,0,0,0,-1.7991,-1.8054,-1.8071,-1.8102,-1.8137,-1.8193,-1.8205,-1.8227,-1.8261,-1.8264,-1.8309,-1.8321,-1.8351,-1.8378,-1.8374,-1.8421,-1.8433,-1.8436,-1.8402,-1.8399,-1.8397,-1.839,-1.8405,0,0,0,0,0,-1.7985,-1.8013,-1.8067,-1.809,-1.8107,-1.8152,-1.8172,-1.8197,-1.8236,-1.8252,-1.8289,-1.8327,-1.836,-1.8381,-1.8415,-1.8444,-1.8456,-1.8453,-1.845,-1.8448,-1.8449,-1.8466,-1.8465,-1.8477,-1.8477,-1.8477,0,0,-1.7974,-1.8012,-1.8027,-1.8082,-1.8113,-1.8141,-1.8165,-1.8194,-1.8216,-1.8257,-1.8291,-1.832,-1.8365,-1.8396,-1.8412,-1.842,-1.8449,-1.8448,-1.8445,-1.8448,-1.8466,-1.8464,-1.8463,-1.8477,-1.8477,-1.8477,0,0,-1.7968,-1.8,-1.8021,-1.8051,-1.8096,-1.8126,-1.8131,-1.8184,-1.8204,-1.8239,-1.827,-1.8296,-1.8353,-1.8384,-1.8407,-1.841,-1.8433,-1.842,-1.8407,-1.8423,-1.8422,-1.8421,-1.8422,-1.8422,-1.8421,-1.8421,-1.8421,0,-1.7949,-1.7992,-1.803,-1.8057,-1.808,-1.8117,-1.8139,-1.8167,-1.8221,-1.8236,-1.8244,-1.8315,-1.8348,-1.8387,-1.8387,-1.8405,-1.8412,-1.8414,-1.8419,-1.8418,-1.8418,-1.842,-1.842,-1.8419,-1.8419,-1.842,-1.842,0,-1.7966,-1.7995,-1.8007,-1.8057,-1.8082,-1.8106,-1.8148,-1.8169,-1.8191,-1.8221,-1.8256,-1.8296,-1.8339,-1.835,-1.8373,-1.8391,-1.8395,-1.841,-1.8423,-1.8415,-1.8417,-1.8418,-1.8417,-1.8417,-1.8418,-1.8418,0,0,-1.7937,-1.8006,-1.801,-1.8033,-1.8085,-1.8109,-1.8135,-1.8175,-1.8191,-1.8227,-1.825,-1.8297,-1.8311,-1.8336,-1.8363,-1.8377,-1.8377,-1.8391,-1.8392,-1.8386,-1.8399,-1.8387,-1.8387,-1.8392,-1.8392,-1.8392,-1.8395,0,-1.7938,-1.7986,-1.802,-1.8054,-1.8082,-1.8116,-1.8139,-1.8174,-1.8201,-1.8229,-1.8261,-1.8292,-1.8309,-1.8324,-1.8339,-1.8373,-1.838,-1.8374,-1.8414,-1.8415,-1.8401,-1.8388,-1.8376,-1.8377,-1.8396,-1.8397,-1.8397,0,-1.7946,-1.7979,-1.8016,-1.8064,-1.8077,-1.8096,-1.8135,-1.8161,-1.8201,-1.822,-1.8248,-1.8275,-1.8304,-1.8315,-1.8356,-1.8351,-1.8369,-1.8388,-1.8389,-1.8394,-1.8405,-1.8393,-1.8379,-1.8378,-1.8398,-1.8398,-1.8398,0,-1.7921,-1.7975,-1.8004,-1.8022,-1.8079,-1.8091,-1.8116,-1.8155,-1.8177,-1.8211,-1.8226,-1.8264,-1.8284,-1.8313,-1.835,-1.8354,-1.8387,-1.84,-1.8404,-1.8403,-1.8409,-1.8408,-1.8397,-1.8421,-1.8421,-1.8421,-1.8421,0,-1.7919,-1.794,-1.7993,-1.801,-1.8035,-1.8074,-1.8097,-1.8125,-1.8159,-1.8183,-1.8216,-1.8238,-1.8285,-1.8313,-1.8342,-1.8371,-1.838,-1.8397,-1.8404,-1.8394,-1.8391,-1.8406,-1.8407,-1.8421,-1.8421,-1.8421,-1.8421,0,-1.7895,-1.7931,-1.7965,-1.8015,-1.8028,-1.8043,-1.8087,-1.8105,-1.8134,-1.8164,-1.8173,-1.8219,-1.8253,-1.8293,-1.834,-1.836,-1.8387,-1.8398,-1.8373,-1.8377,-1.8378,-1.8377,-1.8376,-1.8378,-1.84,-1.84,-1.84,0,-1.7891,-1.7908,-1.7959,-1.7977,-1.8,-1.8028,-1.8049,-1.8088,-1.811,-1.8155,-1.8168,-1.8205,-1.8236,-1.8289,-1.8327,-1.8363,-1.8375,-1.8372,-1.8381,-1.837,-1.8375,-1.8373,-1.8375,-1.837,-1.8369,-1.8369,-1.8369,0,-1.7881,-1.7897,-1.7926,-1.7962,-1.7986,-1.8016,-1.8048,-1.806,-1.8106,-1.8128,-1.8162,-1.8186,-1.8234,-1.8269,-1.831,-1.8336,-1.836,-1.8365,-1.8368,-1.8358,-1.8342,-1.835,-1.8366,-1.8366,-1.8366,-1.8366,-1.8366,-1.8366,-1.7867,-1.7883,-1.792,-1.7952,-1.7979,-1.8007,-1.8027,-1.8057,-1.8086,-1.8127,-1.8148,-1.8182,-1.8221,-1.8278,-1.8303,-1.8331,-1.8339,-1.8343,-1.8344,-1.8344,-1.8341,-1.8338,-1.8338,-1.8339,-1.8339,-1.8339,-1.8339,0,-1.7857,-1.7883,-1.7911,-1.7953,-1.7977,-1.7996,-1.8031,-1.8051,-1.808,-1.8113,-1.8143,-1.8182,-1.8216,-1.8256,-1.8293,-1.8308,-1.832,-1.8316,-1.8316,-1.8321,-1.8332,-1.8325,-1.8306,-1.8306,-1.8306,-1.8306,-1.8306,-1.8306,-1.7855,-1.7883,-1.7903,-1.7945,-1.7971,-1.8003,-1.8021,-1.8048,-1.8074,-1.8116,-1.8144,-1.8169,-1.8206,-1.8245,-1.8278,-1.8289,-1.8301,-1.8294,-1.8308,-1.8318,-1.832,-1.8323,-1.8317,-1.8297,-1.8297,-1.8296,-1.8295,-1.8295]}]]